Location: *
(28.3744°N, 81.5492°W)
Time: 03:50:25
(UTC+00:00)

Terra - Pass Details

Date: 15 June 2025
Orbit: 689 x 692 km, 98.0° (Epoch: 11 July)

Event Time Altitude Azimuth Distance (km) Brightness Sun altitude
Exits shadow 02:28:47 63° 161° (SSE) 772 1.7 -22.9°
Maximum altitude 02:29:34 87° 79° (ENE) 696 1.7 -23.0°
Drops below altitude 10° 02:34:16 10° 349° (N) 2,147 5.1 -23.7°
Sets 02:36:31 0° 349° (N) 3,066 6.0 -24.0°
